Regional Weather Roundup
Issued by NWS

Home | Current Version | Previous Version | Graphics & Text | Print | Product List | Glossary On
Versions: 1 2 3 4 5 6 7 8 9 10 11 12 13 14 15 16 17 18 19 20 21 22 23 24 25 26 27 28 29 30 31 32 33 34 35 36 37 38 39 40 41 42 43 44 45 46 47 48 49 50
000
ASUS43 KFSD 250902
RWRSD

WEATHER ROUNDUP FOR SOUTH DAKOTA
NATIONAL WEATHER SERVICE SIOUX FALLS SD
400 AM CDT FRI JUL 25 2014

NOTE: "FAIR" INDICATES FEW OR NO CLOUDS BELOW 12,000 FEET WITH NO
SIGNIFICANT WEATHER AND/OR OBSTRUCTIONS TO VISIBILITY.


SDZ001>005-009-010-012>017-251000-
NORTHWEST AND NORTH CENTRAL SOUTH DAKOTA

CITY           SKY/WX    TMP DP  RH WIND       PRES   REMARKS
BUFFALO          N/A     60  48  64 NW10      29.84R
FAITH            N/A     66  60  81 NW15      29.82R
MOBRIDGE       PTCLDY    67  65  93 NW15      29.69R
$$

SDZ012>016-024>037-041>051-057-063-072>074-251000-
SOUTHWEST AND SOUTH CENTRAL SOUTH DAKOTA

CITY           SKY/WX    TMP DP  RH WIND       PRES   REMARKS
RAPID CTY ARPT CLEAR     66  51  58 NW22G31   29.88R
PIERRE         CLEAR     71  66  84 SE7       29.64F
CUSTER         CLEAR     66  58  75 N8        29.99R
ELLSWORTH AFB  CLEAR     65  51  60 NW22G29   29.88R
PHILIP         CLEAR     71  62  73 N17       29.74R
PINE RIDGE     CLEAR     71  64  78 N10       29.85R
WINNER         FAIR      72  63  73 W6        29.71S
$$

SDZ004>011-016>023-039-040-251000-
NORTHEAST SOUTH DAKOTA

CITY           SKY/WX    TMP DP  RH WIND       PRES   REMARKS
ABERDEEN       CLOUDY    66  65  96 NE13      29.67F
WATERTOWN      LGT RAIN  65  63  93 SE16G23   29.73R
SISSETON         N/A     65  64  97 S14G21    29.71S
$$

SDZ017-020-022-023-036>040-048>070-251000-
SOUTHEAST SOUTH DAKOTA

CITY           SKY/WX    TMP DP  RH WIND       PRES   REMARKS
SIOUX FALLS    PTCLDY    66  62  87 E12       29.79R
HURON          MOCLDY    68  63  84 E5        29.67F
CHAMBERLAIN    CLEAR     69  62  78 CALM      29.69S
MITCHELL       PTCLDY    67  64  90 NE7       29.72R
YANKTON        CLEAR     79  66  65 S20G26    29.67R
$$

ABBREVIATIONS USED IN REMARKS
   TC - TEMPERATURE IN CELSIUS
  WCI - WIND CHILL INDEX
   HX - HEAT INDEX
  VSB - VISIBILITY




USA.gov is the U.S. government's official web portal to all federal, state and local government web resources and services.